Home   Weather   Overland Park   Past weeks

Flag for USA Past Weather in Overland Park, Kansas, USA — Yesterday and Last 2 Weeks

Now
66 °F

Sunny.


Feels Like: 66 °F
Forecast: 56 / 74 °F
Wind: 17 mph from South

Location: Johnson County Executive Airport

Current Time: Apr 25, 2017 at 11:34:59 am

Latest Report: Apr 25, 2017 at 10:53 am


Visibility: 10 mi

Pressure: 29.42 "Hg

Humidity: 61%

Dew Point: 52 °F

Location of Overland ParkLocation

Past Weather in Overland Park — Graph

°F

Overland Park Temperature Yesterday

Maximum temperature yesterday: 73 °F (at 4:53 pm)
Minimum temperature yesterday: 42 °F (at 6:53 am)
Average temperature yesterday: 60 °F

High & Low Weather Summary for the Past Weeks

 TemperatureHumidityPressure
High78 °F (Apr 15, 4:53 pm)100% (Apr 14, 4:53 am)30.33 "Hg (Apr 14, 4:53 am)
Low36 °F (Apr 11, 6:53 am)25% (Apr 22, 4:53 pm)29.42 "Hg (Apr 25, 9:53 am)
Average61 °F68%30.02 "Hg
* Reported Apr 10 9:53 am — Apr 25 9:53 am, Overland Park, Weather by CustomWeather, © 2017

Note: Actual official high and low records may vary slightly from our data, if they occured in-between our weather recording intervals... More about our weather records

Advertising

Overland Park Weather History for the Previous 24 Hours

Scroll right to see more
 ConditionsComfort  
Time TempWeatherWind HumidityBarometerVisibility
9:53 am
Tue, Apr 25
63 °FSunny.17 mph63%29.42 "Hg10 mi
8:53 am59 °FSunny.12 mph67%29.45 "Hg10 mi
7:53 am57 °FSunny.8 mph69%29.45 "Hg10 mi
6:53 am56 °FSunny.7 mph72%29.47 "Hg10 mi
5:53 am57 °FPassing clouds.7 mph74%29.48 "Hg10 mi
4:53 am59 °FClear.8 mph64%29.52 "Hg10 mi
3:53 am59 °FClear.10 mph64%29.49 "Hg10 mi
2:53 am60 °FClear.9 mph60%29.54 "Hg10 mi
1:53 am61 °FClear.10 mph58%29.56 "Hg10 mi
12:53 am60 °FClear.8 mph60%29.57 "Hg10 mi
11:53 pm
Mon, Apr 24
59 °FClear.8 mph62%29.57 "Hg10 mi
10:53 pm60 °FClear.7 mph58%29.59 "Hg10 mi
9:53 pm60 °FClear.9 mph56%29.61 "Hg10 mi
8:53 pm61 °FClear.7 mph52%29.61 "Hg10 mi
7:53 pm66 °FSunny.7 mph42%29.60 "Hg10 mi
6:53 pm70 °FSunny.8 mph35%29.60 "Hg10 mi
5:53 pm72 °FSunny.15 mph30%29.61 "Hg10 mi
4:53 pm73 °FSunny.15 mph32%29.60 "Hg10 mi
3:53 pm71 °FSunny.21 mph32%29.63 "Hg10 mi
2:53 pm72 °FSunny.23 mph31%29.66 "Hg10 mi
1:53 pm70 °FSunny.18 mph34%29.72 "Hg10 mi
12:53 pm69 °FSunny.25 mph35%29.75 "Hg10 mi
11:53 am67 °FSunny.21 mph33%29.80 "Hg10 mi
Weather by CustomWeather, © 2017

See weather overviewHow to use our weather pages